Wind_Speed
26 28 29 30 31 32 33 35 36 36 37 38 39 40 40 41 41 41 42 42 43 43 43 43 43 43 43 43 43 44 44 44 45 45 45 45 46 46 46 46 47 47 47 48
27 28 29 31 32 33 34 35 36 37 38 39 40 40 41 41 41 41 41 42 42 42 43 43 43 43 43 43 43 44 44 44 44 45 45 45 46 46 46 46 46 46 46 48
27 29 30 31 33 34 35 36 37 38 39 40 41 41 40 40 41 41 41 42 42 43 43 43 43 43 43 44 44 45 45 45 45 45 46 46 46 47 47 47 46 47 47 48
28 29 31 32 33 34 36 37 38 39 40 41 41 42 40 40 40 41 41 42 42 42 43 43 43 44 44 45 45 46 46 46 46 46 46 47 47 47 48 48 47 48 48 48
28 29 31 32 34 35 36 36 38 39 40 41 40 42 41 39 40 40 40 41 41 42 43 43 44 44 45 45 46 46 47 47 47 47 47 47 47 48 48 48 48 48 48 48
29 30 31 32 33 34 36 37 38 39 40 41 39 40 41 39 39 39 39 40 40 41 42 43 44 45 45 46 46 46 47 47 47 47 48 47 48 48 48 48 48 48 48 49
28 29 31 32 33 34 35 36 38 40 40 40 38 39 39 39 38 38 39 39 40 41 41 42 42 44 45 45 46 46 47 47 48 48 48 48 48 49 49 49 48 49 49 49
29 29 30 31 33 34 35 36 36 38 39 39 38 38 38 37 37 37 38 38 39 40 41 42 42 43 44 44 45 45 46 47 48 48 48 48 48 49 50 49 49 49 49 50
30 31 31 32 33 34 35 35 35 36 38 38 37 38 38 37 37 37 37 38 38 39 40 41 42 42 42 42 43 44 45 46 47 47 48 48 49 49 49 50 50 50 50 50
31 32 32 33 34 34 34 34 34 34 36 37 37 37 36 36 37 38 38 38 38 38 39 40 40 41 41 42 43 44 45 46 46 47 48 49 49 49 49 50 51 51 51 52
32 33 34 34 33 33 32 32 33 34 35 36 37 37 36 36 37 37 37 37 37 38 39 39 39 40 41 42 43 44 45 46 47 48 49 49 50 50 50 51 51 51 52 52
33 34 35 34 33 32 32 31 32 33 34 35 37 37 36 36 37 38 38 38 38 37 37 37 37 38 40 41 42 43 44 45 46 46 47 49 50 51 51 51 51 51 52 52
34 34 34 33 32 32 31 31 31 32 33 34 35 36 36 36 37 37 37 37 37 37 36 35 36 37 38 40 41 42 43 44 45 45 46 47 48 50 51 51 51 52 52 52
34 33 32 32 32 32 31 30 30 31 33 33 33 33 34 35 36 36 36 36 36 36 36 36 36 36 37 38 40 41 42 43 44 45 46 47 47 48 49 50 51 52 52 52
33 33 32 31 31 31 30 30 30 31 32 33 32 31 31 33 33 33 34 34 34 34 34 35 36 36 37 37 38 39 40 42 43 44 44 45 46 47 48 49 50 51 52 53
33 33 32 30 30 30 29 29 30 30 30 31 31 31 31 31 32 33 33 33 33 33 33 33 34 35 35 36 37 38 39 41 42 43 43 44 45 46 47 47 48 49 50 51
32 32 31 30 30 29 28 28 28 28 29 30 30 30 30 31 31 32 33 33 33 33 33 34 34 34 35 36 37 38 39 40 41 41 42 43 43 43 44 45 45 46 48 49
31 30 30 30 29 28 27 27 27 28 28 29 29 29 30 30 30 30 31 32 32 33 34 34 34 34 34 35 36 37 38 38 39 40 41 41 42 42 42 43 44 44 46 47
29 29 29 30 29 28 27 27 27 27 27 28 29 29 29 30 30 30 31 31 32 33 33 33 34 34 34 35 35 36 37 38 38 39 40 40 41 41 42 43 43 44 45 46
27 28 29 29 30 29 28 27 27 28 28 27 28 29 30 30 30 30 30 30 30 31 32 32 33 33 34 34 35 35 36 38 38 39 39 40 40 41 42 42 42 43 44 45
28 28 28 29 29 28 28 27 27 27 28 28 29 29 30 30 30 29 29 29 30 31 31 32 32 33 33 34 34 35 35 36 37 38 38 39 40 40 41 41 42 42 42 43
28 29 29 29 28 28 28 27 27 28 28 29 29 30 29 29 29 29 29 29 30 31 31 32 33 33 33 33 33 33 33 34 35 36 36 37 38 39 40 40 40 40 40 40
28 29 29 28 28 28 28 28 28 28 28 28 28 29 29 29 29 30 29 30 30 31 31 32 32 32 32 32 32 32 32 33 34 34 35 36 37 37 37 37 37 37 38 38
28 28 28 28 27 28 28 28 28 27 27 28 28 29 28 28 29 29 29 29 30 30 31 31 31 31 30 31 30 30 31 31 32 32 33 34 35 35 35 35 36 36 36 37
28 28 28 27 27 27 27 27 27 27 27 27 28 28 28 28 28 28 28 28 29 29 30 30 29 29 29 29 29 29 29 30 31 31 31 32 32 32 32 33 34 34 34 35
27 27 28 28 28 27 27 26 26 26 26 27 27 27 27 28 28 27 27 28 28 28 28 28 28 28 28 28 29 29 29 29 30 30 30 30 29 30 30 30 31 31 32 32
Wind_Direction
273 273 273 275 275 274 274 273 272 271 271 270 269 268 268 267 266 265 265 264 263 262 262 262 263 264 264 264 264 264 264 262 261 260 259 259 257 257 256 256 256 256 256 254
276 275 276 276 275 276 276 275 275 273 273 272 271 269 269 268 267 267 266 264 263 262 262 262 262 263 264 264 264 263 263 262 262 260 259 258 258 257 257 257 257 257 256 255
278 278 277 277 277 276 277 277 277 276 275 274 274 271 270 269 268 267 266 265 264 263 262 263 263 263 264 264 264 263 262 262 261 261 259 258 257 257 257 257 257 257 256 255
281 281 280 279 279 279 278 278 278 278 277 276 275 274 271 270 269 268 266 265 264 264 264 264 263 263 264 264 264 263 262 261 261 261 260 258 258 258 258 258 258 257 257 256
285 283 282 282 281 281 281 280 279 278 278 277 275 275 273 272 271 269 268 266 265 265 265 265 265 264 264 264 264 263 262 261 260 260 260 258 258 258 259 259 259 259 258 256
288 287 285 285 284 284 283 283 281 280 279 278 277 276 275 273 272 271 269 268 267 267 266 266 265 265 265 265 264 263 262 261 261 261 259 259 258 258 259 260 260 259 258 257
294 291 289 288 287 286 286 285 285 283 281 280 279 277 276 276 275 273 272 270 269 269 268 268 267 266 266 265 264 263 261 261 261 260 260 259 259 258 258 259 259 259 258 258
299 296 294 292 290 289 287 286 284 284 283 282 279 277 277 277 276 275 274 272 270 270 270 269 268 268 267 266 264 262 261 261 261 260 259 259 258 258 258 258 258 259 258 258
301 299 297 295 294 292 289 286 284 283 282 281 280 280 279 278 277 276 275 274 273 273 272 271 270 269 267 266 264 263 262 261 260 259 259 259 258 258 258 258 259 258 258 258
301 300 300 298 295 293 291 288 285 283 283 283 281 281 281 280 279 278 277 275 275 274 274 273 271 269 267 266 265 263 262 261 260 259 259 258 258 258 258 258 259 258 258 258
302 300 301 299 296 295 293 289 286 284 283 283 283 282 282 281 280 279 277 277 277 276 275 274 271 269 268 267 266 265 263 262 261 260 260 259 259 258 258 259 259 259 258 259
304 302 301 300 297 295 293 291 287 285 284 283 283 284 282 281 280 280 279 279 278 278 277 274 272 270 269 268 267 266 266 264 263 262 261 260 259 258 258 259 259 259 259 259
306 304 303 301 298 297 294 292 288 285 284 284 284 285 284 281 280 280 279 279 280 279 277 275 274 273 272 271 269 268 268 266 265 263 262 261 260 259 259 259 259 259 259 260
305 305 303 301 300 297 294 291 289 287 286 287 287 287 284 282 281 280 279 279 280 278 276 275 276 276 275 273 271 270 268 267 266 265 264 263 262 261 260 260 259 259 260 260
306 305 304 302 299 297 294 291 289 288 287 288 289 288 286 283 282 281 279 279 279 279 278 278 277 277 277 276 274 272 270 269 268 267 265 265 263 262 262 262 262 261 260 260
307 306 304 302 300 298 295 292 291 291 290 290 289 289 287 285 283 282 280 278 277 278 279 279 278 278 277 276 275 274 272 271 270 269 268 267 267 265 265 264 263 261 261 260
307 306 305 304 304 301 298 296 293 293 294 293 291 290 288 286 286 285 283 281 278 278 279 280 279 278 277 277 277 276 274 274 273 272 271 270 269 268 267 265 264 263 261 261
307 306 306 307 306 305 303 299 297 295 295 295 294 293 290 288 287 286 285 284 282 280 280 281 281 280 279 279 278 278 276 275 274 274 273 271 270 269 268 266 265 264 263 262
307 306 306 307 307 306 304 302 300 298 296 296 296 295 293 291 289 287 286 285 285 284 283 283 282 282 281 281 280 279 277 275 275 274 273 272 271 270 269 268 267 265 264 264
307 307 306 306 306 308 307 305 303 301 298 297 296 295 295 294 292 289 286 285 286 287 286 285 285 284 284 283 282 281 280 277 276 275 274 274 273 272 270 269 268 267 266 265
307 307 306 305 305 305 307 307 305 303 302 301 299 297 296 295 294 293 289 287 287 287 288 287 287 287 287 286 285 284 283 280 278 277 276 275 274 273 272 270 269 268 267 266
308 307 307 306 305 305 306 305 304 304 303 302 302 301 299 297 297 295 291 290 289 289 288 289 289 288 288 288 288 287 285 283 282 280 279 278 277 276 274 272 270 268 267 266
309 309 307 305 304 304 306 305 304 304 304 304 304 304 302 299 298 296 294 292 291 291 290 290 290 290 289 290 290 289 288 287 285 283 282 280 279 277 276 274 271 270 267 266
309 309 307 306 304 304 305 305 304 304 305 305 305 305 304 302 301 299 297 296 295 292 291 291 291 291 290 291 292 292 291 291 290 288 285 283 281 279 277 275 272 271 269 266
311 309 308 306 305 304 304 304 304 305 306 306 305 304 304 304 304 302 301 300 298 296 295 295 294 293 293 293 293 295 295 294 293 292 289 286 283 280 279 277 274 272 269 266
312 310 308 307 306 305 305 304 304 304 305 306 305 304 304 304 304 304 303 302 301 300 299 298 297 296 296 296 296 296 297 297 296 294 292 289 286 283 281 278 275 272 270 267
Height
5704 5703 5702 5702 5700 5699 5698 5696 5695 5695 5693 5692 5690 5690 5690 5689 5688 5688 5687 5687 5686 5686 5686 5685 5685 5685 5685 5684 5684 5683 5683 5683 5683 5683 5683 5684 5684 5685 5686 5687 5689 5690 5691 5692
5696 5695 5695 5693 5691 5689 5688 5686 5685 5684 5682 5681 5679 5679 5679 5677 5677 5676 5676 5675 5675 5674 5674 5674 5674 5673 5673 5673 5672 5671 5671 5670 5670 5670 5671 5672 5672 5673 5674 5675 5677 5678 5679 5680
5687 5687 5685 5683 5681 5680 5678 5677 5675 5673 5671 5669 5668 5667 5667 5666 5665 5664 5664 5663 5662 5662 5662 5662 5662 5661 5661 5660 5660 5659 5659 5658 5658 5658 5659 5659 5660 5661 5662 5664 5665 5666 5667 5668
5679 5678 5676 5674 5672 5670 5668 5667 5664 5662 5660 5658 5657 5654 5656 5654 5653 5652 5651 5651 5650 5650 5650 5649 5649 5649 5648 5647 5647 5647 5646 5646 5646 5646 5646 5647 5648 5649 5650 5652 5652 5653 5654 5655
5669 5668 5666 5664 5662 5660 5657 5655 5653 5651 5648 5646 5645 5642 5643 5642 5641 5640 5639 5638 5638 5637 5637 5636 5636 5636 5635 5634 5634 5634 5633 5633 5633 5634 5634 5635 5636 5637 5638 5639 5640 5641 5642 5643
5661 5659 5656 5654 5652 5649 5646 5644 5641 5639 5636 5634 5634 5631 5630 5629 5629 5628 5627 5626 5625 5625 5624 5624 5623 5622 5622 5621 5621 5621 5620 5620 5621 5621 5621 5622 5623 5624 5625 5626 5627 5628 5629 5630
5652 5650 5647 5644 5641 5639 5636 5633 5629 5626 5623 5622 5621 5619 5618 5617 5616 5615 5614 5613 5612 5612 5611 5611 5610 5609 5609 5608 5608 5607 5607 5607 5608 5608 5608 5609 5610 5611 5612 5613 5614 5615 5616 5618
5643 5641 5637 5634 5631 5628 5625 5623 5620 5616 5612 5611 5609 5607 5607 5605 5603 5602 5601 5600 5600 5599 5598 5598 5597 5596 5595 5595 5594 5594 5594 5594 5594 5595 5595 5596 5597 5598 5599 5600 5601 5602 5603 5605
5634 5632 5628 5625 5621 5618 5614 5612 5609 5605 5601 5599 5598 5596 5596 5594 5592 5590 5589 5588 5587 5586 5586 5585 5584 5583 5582 5581 5581 5581 5581 5581 5581 5581 5582 5583 5584 5585 5586 5587 5588 5589 5590 5591
5625 5622 5619 5615 5611 5607 5604 5601 5598 5594 5591 5588 5587 5586 5585 5582 5581 5579 5578 5576 5575 5574 5573 5572 5571 5570 5569 5569 5568 5568 5567 5568 5568 5568 5569 5569 5570 5571 5572 5573 5574 5575 5576 5577
5616 5613 5609 5605 5600 5597 5594 5591 5587 5584 5582 5579 5576 5578 5575 5572 5570 5568 5566 5564 5563 5562 5561 5560 5559 5558 5557 5556 5555 5555 5555 5555 5554 5555 5555 5556 5556 5557 5558 5559 5560 5561 5562 5563
5607 5603 5599 5595 5591 5587 5584 5581 5578 5576 5572 5569 5567 5568 5563 5561 5559 5557 5555 5553 5552 5551 5549 5548 5547 5546 5544 5544 5543 5542 5542 5542 5541 5541 5542 5542 5543 5543 5544 5545 5546 5547 5547 5548
5598 5594 5589 5585 5583 5579 5575 5572 5568 5566 5563 5560 5557 5559 5553 5550 5548 5546 5544 5542 5541 5540 5538 5536 5535 5534 5533 5532 5531 5530 5529 5529 5528 5528 5528 5528 5528 5529 5530 5531 5532 5532 5533 5534
5589 5585 5582 5578 5572 5568 5566 5563 5559 5556 5553 5550 5549 5547 5544 5540 5537 5536 5534 5532 5530 5529 5527 5526 5524 5523 5521 5520 5519 5518 5517 5516 5515 5515 5515 5514 5515 5515 5516 5516 5517 5517 5518 5519
5580 5577 5572 5568 5563 5560 5557 5553 5550 5547 5544 5541 5540 5537 5534 5530 5528 5526 5524 5522 5520 5519 5517 5515 5514 5512 5510 5508 5507 5506 5504 5503 5502 5502 5501 5501 5501 5501 5501 5502 5502 5502 5503 5504
5571 5567 5563 5560 5555 5551 5548 5545 5541 5538 5535 5532 5529 5527 5524 5521 5518 5516 5514 5512 5510 5508 5507 5505 5503 5501 5499 5497 5496 5494 5493 5491 5490 5489 5489 5488 5488 5487 5487 5487 5487 5488 5488 5489
5563 5558 5554 5551 5547 5543 5540 5537 5533 5530 5527 5524 5520 5519 5515 5512 5509 5507 5504 5502 5500 5498 5497 5495 5493 5491 5489 5487 5485 5483 5481 5479 5478 5477 5476 5475 5474 5474 5473 5473 5473 5473 5473 5474
5555 5550 5546 5542 5539 5535 5535 5529 5525 5522 5519 5515 5512 5509 5506 5503 5501 5498 5495 5493 5490 5489 5487 5484 5482 5480 5478 5476 5473 5471 5469 5468 5466 5465 5463 5462 5461 5461 5460 5459 5459 5459 5459 5460
5547 5542 5538 5534 5530 5527 5525 5521 5517 5513 5511 5507 5503 5500 5497 5494 5492 5489 5486 5483 5481 5479 5476 5474 5472 5469 5467 5465 5462 5460 5458 5456 5455 5453 5451 5450 5449 5448 5447 5446 5446 5445 5445 5445
5540 5535 5532 5527 5522 5519 5518 5513 5508 5506 5502 5499 5495 5491 5488 5485 5483 5481 5477 5474 5472 5469 5466 5464 5461 5459 5456 5454 5451 5449 5447 5445 5443 5441 5439 5437 5436 5434 5434 5433 5432 5431 5431 5431
5533 5528 5524 5519 5515 5512 5509 5505 5501 5499 5496 5491 5486 5483 5479 5476 5473 5471 5468 5465 5462 5460 5457 5454 5451 5448 5446 5443 5440 5438 5435 5433 5431 5428 5426 5425 5423 5421 5420 5419 5418 5418 5417 5417
5525 5521 5516 5512 5508 5507 5501 5497 5494 5491 5486 5482 5478 5474 5471 5467 5464 5461 5458 5455 5453 5450 5447 5444 5441 5438 5435 5432 5430 5427 5424 5422 5419 5417 5414 5412 5410 5408 5407 5405 5405 5405 5404 5404
5518 5514 5509 5506 5503 5498 5493 5489 5485 5482 5478 5474 5470 5466 5463 5459 5456 5453 5449 5446 5443 5440 5437 5434 5431 5429 5425 5422 5419 5416 5414 5410 5408 5405 5402 5400 5398 5396 5394 5393 5392 5392 5391 5391
5511 5506 5502 5498 5494 5490 5486 5482 5478 5474 5470 5466 5462 5459 5455 5451 5447 5444 5441 5437 5434 5431 5428 5425 5422 5419 5415 5412 5409 5406 5403 5400 5397 5394 5391 5388 5386 5384 5382 5381 5380 5379 5379 5379
5504 5499 5494 5490 5487 5482 5479 5475 5471 5467 5462 5459 5455 5451 5447 5443 5440 5436 5432 5429 5425 5422 5418 5415 5412 5409 5406 5403 5400 5396 5393 5390 5387 5384 5380 5378 5375 5373 5371 5370 5368 5367 5367 5366
5497 5492 5488 5484 5480 5476 5472 5468 5464 5460 5456 5451 5447 5443 5439 5436 5432 5428 5424 5421 5417 5413 5410 5407 5404 5400 5397 5394 5391 5387 5384 5380 5377 5374 5371 5368 5365 5363 5361 5359 5358 5356 5356 5355